Shirley, NY

12:01 AM EDT on April 24, 2017 (GMT -0400)
Brookhaven

Weather History for KHWV - March, 2014

Change the Weather History Date:

Sunday, March 30, 2014

  Actual Average (KISP) Record (KISP)
Temperature  
Mean Temperature 47 °F -  
Max Temperature 55 °F 50 °F 72 °F (1998)
Min Temperature 39 °F 34 °F 25 °F (2008)
Degree Days  
Heating Degree Days 18    
Moisture  
Dew Point 47 °F    
Average Humidity 96    
Maximum Humidity 100    
Minimum Humidity 92    
Precipitation  
Precipitation 2.41 in - - ()
Sea Level Pressure  
Sea Level Pressure 29.56 in    
Wind  
Wind Speed 12 mph (NNE)    
Max Wind Speed 23 mph    
Max Gust Speed 39 mph    
Visibility 3 miles    
Events Fog , Rain    
Averages and records for this station are not official NWS values.
T = Trace of Precipitation, MM = Missing Value Source: NWS Daily Summary

Daily Weather History Graph

Daily Weather History Graph

Search for Another Location

Airport or City:

Trip Planner

Search our weather history database for the weather conditions in past years. The results will help you decide how hot, cold, wet, or windy it might be!

Date:

Astronomy

Mar. 30, 2014 Rise Set
Actual Time 6:38 AM EDT 7:14 PM EDT
Civil Twilight 6:10 AM EDT 7:41 PM EDT
Nautical Twilight 5:38 AM EDT 8:14 PM EDT
Astronomical Twilight 5:04 AM EDT 8:48 PM EDT
Moon 6:22 AM EDT (3/30) 7:23 PM EDT (3/30)
Length of Visible Light 13h 31m
Length of Day
12h 35m
Waning Crescent, 0% of the Moon is Illuminated
Mar 30
Waning Crescent
Mar 30
New
Apr 7
First Quarter
Apr 15
Full
Apr 22
Last Quarter

Hourly Weather History & Observations

Time (EDT) Temp. Windchill Dew Point Humidity Pressure Visibility Wind Dir Wind Speed Gust Speed Precip Events Conditions
12:15 AM 51.1 °F - 48.9 °F 92% 29.73 in 2.0 mi SE 15.0 mph 21.9 mph 0.02 in Rain Light Rain
12:45 AM 52.0 °F - 51.1 °F 97% 29.71 in 3.0 mi SE 15.0 mph 26.5 mph 0.15 in Rain Heavy Rain
12:56 AM 53.1 °F - 52.0 °F 96% 29.70 in 4.0 mi SE 12.7 mph 26.5 mph 0.19 in Rain Rain
1:17 AM 52.0 °F - 51.1 °F 97% 29.68 in 1.8 mi SE 16.1 mph 27.6 mph 0.19 in Rain Heavy Rain
1:35 AM 52.0 °F - 51.1 °F 97% 29.65 in 2.0 mi ESE 11.5 mph 27.6 mph 0.35 in Rain Heavy Rain
1:56 AM 53.1 °F - 51.1 °F 93% 29.64 in 3.0 mi SE 17.3 mph 29.9 mph 0.45 in Rain Rain
2:43 AM 54.0 °F - 53.1 °F 97% 29.59 in 1.8 mi SSE 21.9 mph 34.5 mph 0.19 in Rain Heavy Rain
2:56 AM 54.0 °F - 53.1 °F 97% 29.60 in 2.0 mi SSE 23.0 mph 39.1 mph 0.30 in Rain Heavy Rain
3:22 AM 52.0 °F - 51.1 °F 97% 29.60 in 1.0 mi SSW 12.7 mph 28.8 mph 0.39 in Rain Heavy Rain
3:36 AM 54.0 °F - 52.0 °F 93% 29.60 in 2.0 mi SSW 18.4 mph 25.3 mph 0.57 in Rain Rain
3:49 AM 54.0 °F - 53.1 °F 97% 29.60 in 2.5 mi SSW 12.7 mph - 0.67 in Rain Heavy Rain
3:56 AM 54.0 °F - 53.1 °F 97% 29.59 in 1.5 mi SSW 8.1 mph - 0.83 in Rain Heavy Rain
4:06 AM 54.0 °F - 54.0 °F 100% 29.58 in 2.5 mi South 6.9 mph - 0.04 in Rain Light Rain
4:13 AM 55.0 °F - 54.0 °F 96% 29.58 in 4.0 mi South 8.1 mph - 0.07 in Rain Rain
4:27 AM 55.0 °F - 55.0 °F 100% 29.57 in 2.5 mi South 10.4 mph - 0.17 in Rain Heavy Rain
4:37 AM 55.9 °F - 55.0 °F 97% 29.57 in 4.0 mi South 9.2 mph - 0.20 in Rain Rain
4:49 AM 55.9 °F - 55.0 °F 97% 29.56 in 5.0 mi SSE 8.1 mph - 0.23 in Rain Rain
4:56 AM 55.0 °F - 54.0 °F 96% 29.57 in 5.0 mi South 10.4 mph - 0.24 in Rain Rain
5:07 AM 55.9 °F - 55.0 °F 97% 29.57 in 4.0 mi SW 9.2 mph - 0.04 in Rain Rain
5:46 AM 54.0 °F - 54.0 °F 100% 29.56 in 4.0 mi Calm Calm - 0.15 in Rain Rain
5:56 AM 54.0 °F - 54.0 °F 100% 29.57 in 4.0 mi Calm Calm - 0.19 in Rain Rain
6:10 AM 54.0 °F - 54.0 °F 100% 29.56 in 3.0 mi Calm Calm - 0.06 in Rain Heavy Rain
6:46 AM 54.0 °F - 53.1 °F 97% 29.54 in 6.0 mi ENE 3.5 mph - 0.14 in Rain Light Rain
6:54 AM 55.4 °F - 53.6 °F 94% 29.53 in 6.0 mi Calm Calm - 0.15 in Rain Light Rain
6:56 AM 55.0 °F - 54.0 °F 96% 29.54 in 6.0 mi NNW 3.5 mph - 0.15 in Rain Light Rain
7:13 AM 53.1 °F - 52.0 °F 96% 29.52 in 2.5 mi NNE 4.6 mph - 0.00 in Rain Light Rain
7:27 AM 52.0 °F - 51.1 °F 97% 29.51 in 1.2 mi North 4.6 mph - 0.00 in Rain Light Rain
7:56 AM 48.9 °F - 48.0 °F 97% 29.54 in 0.8 mi WNW 8.1 mph - 0.00 in   Overcast
8:24 AM 46.0 °F 41.4 °F 45.0 °F 96% 29.53 in 0.2 mi North 9.2 mph - N/A Fog Fog
8:51 AM 46.4 °F 42.4 °F 46.4 °F 100% 29.53 in 0.5 mi North 8.1 mph - N/A Fog Fog
8:56 AM 46.0 °F 42.5 °F 46.0 °F 100% 29.53 in 0.5 mi North 6.9 mph - N/A Fog Fog
9:46 AM 46.0 °F 41.0 °F 45.0 °F 96% 29.51 in 1.0 mi North 10.4 mph - N/A   Overcast
9:56 AM 46.0 °F 41.0 °F 45.0 °F 96% 29.52 in 1.0 mi North 10.4 mph - N/A   Overcast
10:56 AM 46.0 °F 40.2 °F 45.0 °F 96% 29.52 in 1.8 mi North 12.7 mph 18.4 mph N/A   Overcast
11:56 AM 45.0 °F 38.5 °F 44.1 °F 97% 29.52 in 1.8 mi North 13.8 mph - N/A   Overcast
12:56 PM 45.0 °F 40.6 °F 44.1 °F 97% 29.52 in 1.8 mi North 8.1 mph 18.4 mph N/A   Overcast
1:30 PM 45.0 °F 38.5 °F 44.1 °F 97% 29.50 in 2.0 mi North 13.8 mph 21.9 mph N/A   Overcast
1:56 PM 46.0 °F 40.2 °F 44.1 °F 93% 29.50 in 2.5 mi North 12.7 mph 20.7 mph 0.00 in Rain Light Rain
2:34 PM 46.0 °F 41.0 °F 44.1 °F 93% 29.51 in 1.8 mi North 10.4 mph 20.7 mph 0.00 in   Overcast
2:42 PM 46.0 °F 40.6 °F 44.1 °F 93% 29.50 in 2.0 mi North 11.5 mph 19.6 mph 0.00 in   Overcast
2:51 PM 46.4 °F 40.7 °F 44.6 °F 93% 29.50 in 1.8 mi North 12.7 mph 24.2 mph 0.00 in   Overcast
2:56 PM 46.0 °F 40.2 °F 44.1 °F 93% 29.50 in 1.8 mi North 12.7 mph 21.9 mph 0.00 in   Overcast
3:36 PM 46.0 °F 39.9 °F 44.1 °F 93% 29.49 in 2.5 mi NNE 13.8 mph 20.7 mph 0.00 in Rain Light Rain
3:49 PM 46.0 °F 41.0 °F 44.1 °F 93% 29.49 in 3.0 mi NNE 10.4 mph 20.7 mph 0.00 in   Overcast
3:56 PM 46.0 °F 40.6 °F 44.1 °F 93% 29.49 in 3.0 mi North 11.5 mph 21.9 mph 0.00 in Rain Light Rain
4:17 PM 45.0 °F 38.9 °F 44.1 °F 97% 29.48 in 2.5 mi NNE 12.7 mph 21.9 mph 0.00 in   Overcast
4:42 PM 45.0 °F 39.7 °F 43.0 °F 93% 29.47 in 3.0 mi NNE 10.4 mph 21.9 mph 0.00 in   Overcast
4:56 PM 45.0 °F 39.3 °F 43.0 °F 93% 29.47 in 2.5 mi NNE 11.5 mph 18.4 mph 0.00 in Rain Light Rain
5:09 PM 44.1 °F 39.5 °F 43.0 °F 96% 29.49 in 3.0 mi NNE 8.1 mph 18.4 mph 0.00 in Rain Light Rain
5:25 PM 44.1 °F 38.1 °F 42.1 °F 93% 29.49 in 2.5 mi NNE 11.5 mph 24.2 mph 0.00 in Rain Light Rain
5:56 PM 43.0 °F 36.0 °F 41.0 °F 93% 29.51 in 2.5 mi NNE 13.8 mph 23.0 mph 0.00 in Rain Light Rain
6:24 PM 43.0 °F 37.2 °F 41.0 °F 93% 29.52 in 4.0 mi NNE 10.4 mph 20.7 mph 0.04 in Rain Light Rain
6:42 PM 42.1 °F 35.7 °F 39.9 °F 92% 29.52 in 2.5 mi North 11.5 mph 19.6 mph 0.04 in Rain Light Rain
6:56 PM 42.1 °F 36.1 °F 39.9 °F 92% 29.53 in 3.0 mi NNE 10.4 mph 21.9 mph 0.04 in Rain Light Rain
7:56 PM 41.0 °F 33.5 °F 39.0 °F 93% 29.56 in 4.0 mi North 13.8 mph 21.9 mph 0.01 in Rain Light Rain
8:56 PM 41.0 °F 35.2 °F 39.0 °F 93% 29.58 in 5.0 mi North 9.2 mph 20.7 mph 0.00 in   Overcast
9:56 PM 39.9 °F 33.4 °F 39.0 °F 97% 29.61 in 4.0 mi North 10.4 mph - 0.00 in   Overcast
10:20 PM 39.9 °F 33.9 °F 37.9 °F 93% 29.61 in 4.0 mi North 9.2 mph - N/A   Overcast
10:56 PM 39.9 °F 32.5 °F 37.9 °F 93% 29.63 in 5.0 mi North 12.7 mph 20.7 mph 0.01 in Rain Light Rain
11:09 PM 39.9 °F 34.5 °F 37.9 °F 93% 29.63 in 9.0 mi North 8.1 mph 20.7 mph 0.00 in   Overcast
11:56 PM 39.0 °F 32.8 °F 37.9 °F 96% 29.65 in 10.0 mi North 9.2 mph 16.1 mph 0.00 in   Overcast